QPF
0.00 0.00 0.00 0.00 0.00 0.00 0.00 0.00 0.00 0.00 0.00 0.00 0.00 0.00 0.00 0.00 0.00 0.00 0.00 0.00 0.00 0.00 0.00 0.00 0.00 0.00 0.00 0.00 0.01 0.02 0.02 0.01 0.00 0.00 0.00 0.01 0.01 0.01 0.02 0.01 0.01 0.02 0.02 0.02
0.00 0.00 0.00 0.00 0.00 0.00 0.00 0.00 0.00 0.00 0.00 0.00 0.00 0.00 0.00 0.00 0.00 0.00 0.00 0.00 0.00 0.00 0.00 0.00 0.00 0.00 0.00 0.00 0.01 0.01 0.02 0.01 0.01 0.00 0.00 0.01 0.02 0.02 0.02 0.02 0.02 0.03 0.02 0.02
0.00 0.00 0.00 0.00 0.00 0.00 0.00 0.00 0.00 0.00 0.00 0.00 0.00 0.00 0.00 0.00 0.00 0.00 0.01 0.01 0.01 0.00 0.00 0.00 0.00 0.00 0.00 0.00 0.00 0.00 0.01 0.01 0.02 0.02 0.02 0.01 0.01 0.03 0.05 0.05 0.05 0.05 0.03 0.02
0.00 0.00 0.00 0.00 0.00 0.00 0.00 0.00 0.00 0.00 0.00 0.00 0.00 0.00 0.00 0.00 0.00 0.00 0.00 0.00 0.00 0.00 0.00 0.00 0.00 0.00 0.00 0.00 0.01 0.01 0.02 0.04 0.05 0.05 0.04 0.03 0.04 0.07 0.08 0.08 0.08 0.07 0.05 0.04
0.00 0.00 0.00 0.00 0.00 0.00 0.00 0.00 0.00 0.00 0.00 0.00 0.00 0.00 0.00 0.00 0.00 0.00 0.00 0.00 0.00 0.00 0.00 0.00 0.00 0.00 0.00 0.00 0.01 0.02 0.02 0.04 0.04 0.05 0.05 0.06 0.09 0.11 0.12 0.11 0.08 0.05 0.03 0.03
0.00 0.00 0.00 0.00 0.00 0.00 0.00 0.00 0.00 0.00 0.00 0.00 0.00 0.00 0.00 0.00 0.00 0.00 0.00 0.00 0.00 0.00 0.00 0.00 0.00 0.00 0.00 0.01 0.02 0.04 0.05 0.06 0.07 0.09 0.09 0.08 0.09 0.11 0.10 0.08 0.05 0.04 0.04 0.03
0.00 0.00 0.00 0.00 0.00 0.00 0.00 0.00 0.00 0.00 0.00 0.00 0.00 0.00 0.00 0.00 0.00 0.00 0.00 0.00 0.00 0.00 0.00 0.01 0.01 0.00 0.00 0.01 0.03 0.04 0.04 0.04 0.06 0.08 0.09 0.08 0.08 0.09 0.07 0.05 0.05 0.05 0.04 0.04
0.00 0.00 0.00 0.00 0.00 0.00 0.00 0.00 0.00 0.00 0.00 0.00 0.00 0.00 0.00 0.00 0.01 0.00 0.00 0.01 0.01 0.01 0.01 0.01 0.01 0.01 0.01 0.01 0.01 0.02 0.03 0.04 0.07 0.09 0.07 0.06 0.06 0.06 0.05 0.05 0.05 0.05 0.05 0.04
0.00 0.00 0.00 0.00 0.00 0.00 0.00 0.00 0.00 0.00 0.00 0.00 0.00 0.00 0.00 0.01 0.01 0.00 0.01 0.01 0.01 0.01 0.01 0.01 0.01 0.01 0.01 0.02 0.03 0.04 0.04 0.06 0.09 0.08 0.07 0.08 0.08 0.06 0.05 0.06 0.06 0.05 0.05 0.04
0.00 0.00 0.00 0.00 0.00 0.00 0.00 0.00 0.00 0.00 0.00 0.00 0.00 0.00 0.01 0.01 0.01 0.01 0.02 0.01 0.01 0.01 0.01 0.01 0.01 0.02 0.03 0.03 0.03 0.04 0.06 0.09 0.13 0.13 0.13 0.10 0.07 0.06 0.05 0.05 0.05 0.04 0.04 0.04
0.00 0.00 0.00 0.00 0.00 0.00 0.00 0.00 0.00 0.00 0.00 0.00 0.00 0.01 0.01 0.01 0.02 0.02 0.02 0.02 0.02 0.02 0.02 0.02 0.02 0.05 0.07 0.08 0.09 0.11 0.13 0.15 0.17 0.18 0.16 0.13 0.10 0.08 0.07 0.06 0.06 0.05 0.03 0.03
0.00 0.00 0.00 0.00 0.00 0.00 0.00 0.00 0.01 0.01 0.01 0.01 0.01 0.01 0.01 0.02 0.03 0.02 0.02 0.02 0.03 0.03 0.03 0.03 0.03 0.04 0.06 0.09 0.11 0.12 0.12 0.11 0.09 0.09 0.08 0.08 0.08 0.07 0.06 0.05 0.05 0.05 0.04 0.03
0.00 0.00 0.00 0.00 0.00 0.00 0.00 0.00 0.01 0.01 0.02 0.02 0.02 0.01 0.01 0.02 0.03 0.03 0.03 0.03 0.04 0.06 0.06 0.07 0.08 0.08 0.08 0.09 0.10 0.12 0.11 0.09 0.07 0.06 0.06 0.05 0.04 0.03 0.03 0.03 0.03 0.04 0.03 0.04
0.00 0.00 0.00 0.00 0.01 0.01 0.01 0.01 0.02 0.03 0.04 0.04 0.03 0.02 0.02 0.02 0.02 0.03 0.03 0.04 0.04 0.04 0.03 0.04 0.04 0.05 0.06 0.07 0.09 0.10 0.12 0.12 0.09 0.07 0.05 0.04 0.04 0.04 0.04 0.03 0.03 0.03 0.03 0.03
0.01 0.01 0.01 0.01 0.01 0.01 0.01 0.02 0.03 0.05 0.05 0.05 0.06 0.05 0.04 0.04 0.04 0.04 0.04 0.05 0.05 0.05 0.04 0.04 0.03 0.04 0.04 0.05 0.07 0.07 0.08 0.09 0.07 0.05 0.04 0.04 0.04 0.04 0.03 0.03 0.03 0.03 0.03 0.04
0.01 0.02 0.02 0.02 0.02 0.02 0.02 0.02 0.03 0.05 0.06 0.05 0.05 0.06 0.08 0.07 0.05 0.05 0.04 0.04 0.04 0.04 0.04 0.04 0.04 0.04 0.03 0.04 0.05 0.05 0.04 0.04 0.04 0.03 0.04 0.05 0.04 0.05 0.05 0.04 0.04 0.04 0.04 0.04
0.02 0.02 0.03 0.04 0.03 0.02 0.02 0.03 0.03 0.05 0.06 0.07 0.08 0.08 0.07 0.07 0.05 0.05 0.05 0.05 0.05 0.06 0.06 0.07 0.08 0.06 0.05 0.05 0.05 0.05 0.05 0.05 0.05 0.05 0.06 0.05 0.05 0.06 0.07 0.06 0.05 0.04 0.03 0.03
0.03 0.04 0.05 0.05 0.03 0.03 0.03 0.03 0.03 0.04 0.05 0.07 0.10 0.12 0.08 0.07 0.05 0.04 0.04 0.05 0.06 0.06 0.06 0.07 0.06 0.05 0.05 0.06 0.06 0.06 0.06 0.06 0.06 0.06 0.08 0.07 0.07 0.07 0.08 0.08 0.08 0.08 0.07 0.07
0.04 0.06 0.06 0.05 0.03 0.03 0.04 0.05 0.04 0.04 0.04 0.05 0.07 0.10 0.08 0.07 0.07 0.05 0.05 0.05 0.06 0.06 0.06 0.07 0.05 0.04 0.04 0.04 0.06 0.06 0.07 0.08 0.08 0.07 0.08 0.09 0.11 0.12 0.12 0.12 0.10 0.09 0.09 0.08
0.06 0.08 0.10 0.09 0.06 0.05 0.05 0.06 0.05 0.04 0.04 0.04 0.06 0.06 0.07 0.07 0.08 0.08 0.07 0.07 0.07 0.05 0.06 0.07 0.05 0.03 0.03 0.03 0.03 0.04 0.05 0.06 0.07 0.08 0.09 0.11 0.12 0.12 0.12 0.11 0.09 0.08 0.07 0.06
0.06 0.08 0.10 0.12 0.10 0.07 0.06 0.05 0.04 0.04 0.04 0.05 0.07 0.06 0.06 0.06 0.07 0.08 0.09 0.09 0.08 0.06 0.05 0.09 0.08 0.04 0.03 0.03 0.03 0.03 0.03 0.04 0.04 0.04 0.05 0.06 0.07 0.06 0.06 0.08 0.10 0.10 0.09 0.08
0.06 0.06 0.08 0.10 0.11 0.09 0.07 0.06 0.06 0.06 0.05 0.05 0.05 0.05 0.06 0.07 0.09 0.11 0.10 0.09 0.07 0.05 0.04 0.06 0.10 0.09 0.06 0.05 0.04 0.03 0.04 0.05 0.04 0.04 0.04 0.05 0.05 0.05 0.04 0.05 0.07 0.09 0.10 0.09
0.04 0.03 0.04 0.05 0.07 0.08 0.07 0.06 0.05 0.05 0.06 0.08 0.10 0.10 0.09 0.10 0.10 0.08 0.07 0.05 0.04 0.04 0.04 0.04 0.06 0.08 0.08 0.07 0.05 0.05 0.05 0.05 0.04 0.03 0.03 0.03 0.03 0.04 0.06 0.07 0.08 0.07 0.07 0.07
0.03 0.02 0.02 0.02 0.04 0.05 0.05 0.05 0.05 0.04 0.04 0.04 0.07 0.09 0.09 0.09 0.09 0.07 0.06 0.05 0.04 0.03 0.03 0.04 0.03 0.03 0.04 0.06 0.07 0.07 0.06 0.05 0.05 0.05 0.05 0.04 0.03 0.04 0.04 0.05 0.05 0.05 0.05 0.05
0.04 0.03 0.03 0.04 0.06 0.05 0.04 0.04 0.04 0.03 0.04 0.05 0.05 0.06 0.07 0.07 0.07 0.05 0.05 0.04 0.04 0.03 0.03 0.03 0.03 0.03 0.04 0.06 0.08 0.09 0.08 0.07 0.06 0.06 0.06 0.06 0.04 0.03 0.03 0.03 0.03 0.03 0.04 0.05
0.05 0.05 0.06 0.06 0.06 0.04 0.04 0.04 0.04 0.04 0.04 0.04 0.05 0.05 0.05 0.04 0.04 0.04 0.03 0.03 0.03 0.02 0.02 0.03 0.02 0.03 0.04 0.05 0.06 0.06 0.06 0.06 0.06 0.05 0.04 0.04 0.03 0.02 0.02 0.02 0.02 0.02 0.02 0.03
0.05 0.07 0.06 0.05 0.05 0.04 0.04 0.04 0.04 0.04 0.03 0.04 0.04 0.05 0.06 0.05 0.05 0.04 0.03 0.02 0.03 0.03 0.02 0.02 0.02 0.02 0.01 0.02 0.03 0.02 0.02 0.03 0.03 0.03 0.03 0.03 0.02 0.02 0.02 0.01 0.01 0.01 0.01 0.01
MSLP
1006.86 1006.80 1006.86 1007.03 1007.28 1007.53 1007.73 1007.78 1007.65 1007.30 1006.75 1006.05 1005.27 1004.50 1003.84 1003.35 1003.08 1003.02 1003.16 1003.46 1003.84 1004.25 1004.66 1005.04 1005.40 1005.74 1006.10 1006.51 1006.99 1007.53 1008.11 1008.72 1009.31 1009.85 1010.30 1010.65 1010.90 1011.08 1011.20 1011.31 1011.43 1011.57 1011.73 1011.92
1007.05 1006.97 1006.98 1007.09 1007.27 1007.48 1007.65 1007.72 1007.63 1007.37 1006.92 1006.33 1005.64 1004.94 1004.29 1003.75 1003.37 1003.16 1003.12 1003.21 1003.39 1003.64 1003.92 1004.22 1004.53 1004.87 1005.26 1005.72 1006.24 1006.83 1007.46 1008.10 1008.72 1009.27 1009.74 1010.11 1010.38 1010.58 1010.72 1010.83 1010.94 1011.07 1011.22 1011.40
1007.43 1007.35 1007.36 1007.45 1007.61 1007.80 1007.97 1008.05 1008.01 1007.80 1007.43 1006.91 1006.28 1005.60 1004.92 1004.31 1003.80 1003.42 1003.17 1003.06 1003.05 1003.12 1003.26 1003.47 1003.74 1004.07 1004.48 1004.97 1005.53 1006.16 1006.83 1007.50 1008.14 1008.71 1009.21 1009.59 1009.89 1010.10 1010.25 1010.37 1010.47 1010.58 1010.70 1010.84
1007.98 1007.95 1007.98 1008.08 1008.24 1008.43 1008.59 1008.68 1008.66 1008.49 1008.16 1007.68 1007.07 1006.38 1005.66 1004.97 1004.33 1003.80 1003.37 1003.07 1002.88 1002.80 1002.82 1002.94 1003.15 1003.46 1003.86 1004.36 1004.95 1005.59 1006.27 1006.96 1007.61 1008.20 1008.71 1009.12 1009.43 1009.66 1009.82 1009.94 1010.03 1010.10 1010.19 1010.27
1008.68 1008.69 1008.76 1008.88 1009.04 1009.21 1009.36 1009.44 1009.42 1009.26 1008.94 1008.47 1007.87 1007.17 1006.42 1005.66 1004.94 1004.29 1003.73 1003.29 1002.97 1002.77 1002.69 1002.73 1002.88 1003.15 1003.52 1004.00 1004.56 1005.19 1005.86 1006.53 1007.17 1007.76 1008.28 1008.71 1009.04 1009.28 1009.46 1009.57 1009.64 1009.69 1009.73 1009.77
1009.42 1009.47 1009.56 1009.69 1009.84 1009.99 1010.10 1010.16 1010.11 1009.93 1009.61 1009.14 1008.55 1007.85 1007.10 1006.32 1005.56 1004.86 1004.24 1003.73 1003.34 1003.06 1002.91 1002.89 1002.98 1003.19 1003.51 1003.93 1004.43 1005.00 1005.62 1006.24 1006.85 1007.43 1007.94 1008.37 1008.72 1008.98 1009.17 1009.29 1009.36 1009.39 1009.40 1009.40
1010.12 1010.19 1010.28 1010.39 1010.50 1010.61 1010.68 1010.68 1010.59 1010.38 1010.05 1009.59 1009.01 1008.35 1007.63 1006.89 1006.16 1005.49 1004.88 1004.37 1003.96 1003.67 1003.48 1003.41 1003.44 1003.58 1003.82 1004.15 1004.57 1005.04 1005.57 1006.12 1006.67 1007.20 1007.69 1008.12 1008.48 1008.77 1008.98 1009.12 1009.21 1009.24 1009.25 1009.24
1010.70 1010.76 1010.82 1010.89 1010.95 1010.99 1010.99 1010.93 1010.79 1010.55 1010.21 1009.76 1009.23 1008.63 1007.99 1007.34 1006.71 1006.12 1005.60 1005.15 1004.79 1004.52 1004.33 1004.23 1004.21 1004.27 1004.41 1004.63 1004.93 1005.28 1005.69 1006.14 1006.61 1007.08 1007.54 1007.96 1008.33 1008.65 1008.90 1009.08 1009.20 1009.27 1009.29 1009.30
1011.12 1011.14 1011.15 1011.16 1011.16 1011.13 1011.05 1010.93 1010.73 1010.46 1010.12 1009.71 1009.24 1008.73 1008.20 1007.68 1007.19 1006.74 1006.35 1006.01 1005.73 1005.52 1005.35 1005.24 1005.17 1005.16 1005.20 1005.30 1005.46 1005.67 1005.95 1006.28 1006.66 1007.06 1007.48 1007.88 1008.27 1008.61 1008.90 1009.13 1009.30 1009.43 1009.51 1009.56
1011.38 1011.34 1011.30 1011.24 1011.16 1011.06 1010.92 1010.73 1010.50 1010.21 1009.88 1009.51 1009.11 1008.71 1008.31 1007.94 1007.61 1007.32 1007.07 1006.87 1006.70 1006.56 1006.43 1006.32 1006.22 1006.14 1006.08 1006.06 1006.08 1006.16 1006.31 1006.52 1006.79 1007.12 1007.49 1007.87 1008.26 1008.62 1008.95 1009.24 1009.47 1009.66 1009.80 1009.91
1011.52 1011.41 1011.30 1011.18 1011.04 1010.88 1010.68 1010.46 1010.20 1009.91 1009.60 1009.28 1008.96 1008.66 1008.40 1008.17 1007.99 1007.85 1007.75 1007.68 1007.62 1007.55 1007.47 1007.37 1007.24 1007.10 1006.96 1006.83 1006.74 1006.69 1006.72 1006.82 1006.99 1007.24 1007.55 1007.91 1008.28 1008.66 1009.02 1009.34 1009.63 1009.87 1010.06 1010.22
1011.58 1011.42 1011.25 1011.08 1010.89 1010.69 1010.46 1010.22 1009.95 1009.67 1009.39 1009.12 1008.88 1008.67 1008.52 1008.41 1008.36 1008.35 1008.37 1008.41 1008.43 1008.43 1008.39 1008.30 1008.16 1007.99 1007.78 1007.57 1007.38 1007.24 1007.16 1007.16 1007.24 1007.42 1007.66 1007.97 1008.32 1008.69 1009.05 1009.39 1009.70 1009.96 1010.18 1010.36
1011.61 1011.40 1011.19 1010.99 1010.78 1010.56 1010.33 1010.09 1009.83 1009.58 1009.34 1009.11 1008.93 1008.80 1008.72 1008.70 1008.74 1008.82 1008.93 1009.04 1009.14 1009.19 1009.18 1009.10 1008.96 1008.76 1008.51 1008.25 1008.00 1007.78 1007.62 1007.54 1007.54 1007.64 1007.82 1008.07 1008.37 1008.70 1009.03 1009.35 1009.64 1009.90 1010.11 1010.28
1011.66 1011.40 1011.17 1010.95 1010.73 1010.52 1010.31 1010.09 1009.87 1009.65 1009.45 1009.27 1009.13 1009.05 1009.02 1009.06 1009.15 1009.29 1009.44 1009.60 1009.73 1009.82 1009.83 1009.77 1009.63 1009.43 1009.16 1008.87 1008.58 1008.31 1008.10 1007.95 1007.89 1007.91 1008.02 1008.20 1008.43 1008.69 1008.96 1009.23 1009.47 1009.68 1009.85 1009.97
1011.72 1011.44 1011.19 1010.97 1010.77 1010.58 1010.40 1010.22 1010.04 1009.86 1009.70 1009.56 1009.46 1009.41 1009.42 1009.48 1009.60 1009.75 1009.93 1010.10 1010.25 1010.35 1010.38 1010.34 1010.21 1010.01 1009.75 1009.45 1009.14 1008.85 1008.59 1008.40 1008.28 1008.24 1008.27 1008.37 1008.52 1008.70 1008.89 1009.07 1009.24 1009.38 1009.47 1009.52
1011.80 1011.51 1011.26 1011.05 1010.87 1010.71 1010.57 1010.44 1010.30 1010.17 1010.05 1009.95 1009.89 1009.86 1009.88 1009.95 1010.07 1010.23 1010.40 1010.58 1010.73 1010.83 1010.87 1010.83 1010.72 1010.53 1010.28 1009.99 1009.68 1009.38 1009.11 1008.88 1008.72 1008.62 1008.58 1008.60 1008.66 1008.75 1008.85 1008.95 1009.03 1009.09 1009.11 1009.09
1011.93 1011.63 1011.39 1011.19 1011.03 1010.91 1010.81 1010.72 1010.63 1010.55 1010.47 1010.40 1010.36 1010.35 1010.38 1010.45 1010.57 1010.71 1010.88 1011.04 1011.18 1011.28 1011.32 1011.29 1011.19 1011.02 1010.79 1010.51 1010.21 1009.91 1009.63 1009.39 1009.19 1009.04 1008.94 1008.89 1008.88 1008.89 1008.91 1008.93 1008.94 1008.92 1008.88 1008.81
1012.11 1011.82 1011.58 1011.40 1011.27 1011.18 1011.11 1011.05 1011.01 1010.96 1010.92 1010.88 1010.86 1010.87 1010.91 1010.98 1011.08 1011.22 1011.36 1011.51 1011.64 1011.73 1011.77 1011.74 1011.65 1011.49 1011.27 1011.01 1010.72 1010.43 1010.15 1009.89 1009.67 1009.49 1009.35 1009.25 1009.18 1009.13 1009.09 1009.05 1009.01 1008.95 1008.88 1008.78
1012.39 1012.10 1011.88 1011.71 1011.60 1011.53 1011.48 1011.46 1011.43 1011.41 1011.40 1011.39 1011.39 1011.40 1011.45 1011.52 1011.61 1011.73 1011.87 1012.00 1012.11 1012.18 1012.21 1012.18 1012.09 1011.93 1011.73 1011.48 1011.21 1010.92 1010.65 1010.39 1010.15 1009.96 1009.79 1009.66 1009.56 1009.47 1009.40 1009.33 1009.27 1009.20 1009.12 1009.04
1012.77 1012.51 1012.31 1012.15 1012.05 1011.99 1011.95 1011.93 1011.92 1011.92 1011.91 1011.91 1011.92 1011.95 1011.99 1012.06 1012.15 1012.26 1012.37 1012.48 1012.57 1012.63 1012.64 1012.60 1012.50 1012.35 1012.15 1011.91 1011.65 1011.37 1011.10 1010.85 1010.61 1010.41 1010.24 1010.10 1009.98 1009.88 1009.80 1009.73 1009.66 1009.61 1009.55 1009.50
1013.27 1013.04 1012.85 1012.72 1012.62 1012.55 1012.52 1012.49 1012.48 1012.47 1012.46 1012.46 1012.47 1012.49 1012.53 1012.59 1012.67 1012.76 1012.86 1012.95 1013.02 1013.05 1013.04 1012.99 1012.88 1012.72 1012.52 1012.28 1012.03 1011.76 1011.50 1011.25 1011.03 1010.84 1010.67 1010.52 1010.41 1010.31 1010.23 1010.16 1010.11 1010.07 1010.05 1010.04
1013.84 1013.65 1013.49 1013.36 1013.26 1013.19 1013.14 1013.10 1013.07 1013.04 1013.02 1013.01 1013.01 1013.02 1013.04 1013.09 1013.15 1013.23 1013.30 1013.36 1013.41 1013.42 1013.39 1013.31 1013.19 1013.02 1012.82 1012.58 1012.33 1012.08 1011.83 1011.60 1011.39 1011.20 1011.04 1010.90 1010.79 1010.70 1010.62 1010.56 1010.51 1010.49 1010.48 1010.50
1014.41 1014.26 1014.12 1014.00 1013.90 1013.82 1013.75 1013.69 1013.64 1013.59 1013.55 1013.51 1013.49 1013.48 1013.49 1013.52 1013.56 1013.61 1013.65 1013.69 1013.71 1013.69 1013.64 1013.55 1013.41 1013.24 1013.03 1012.80 1012.56 1012.31 1012.08 1011.86 1011.66 1011.49 1011.34 1011.21 1011.09 1011.00 1010.91 1010.84 1010.79 1010.75 1010.74 1010.76
1014.89 1014.77 1014.66 1014.55 1014.45 1014.36 1014.27 1014.19 1014.11 1014.04 1013.98 1013.92 1013.88 1013.85 1013.84 1013.84 1013.86 1013.88 1013.90 1013.91 1013.90 1013.86 1013.79 1013.68 1013.53 1013.35 1013.14 1012.92 1012.69 1012.46 1012.24 1012.04 1011.85 1011.69 1011.54 1011.41 1011.29 1011.18 1011.08 1010.98 1010.90 1010.83 1010.79 1010.77
1015.19 1015.09 1014.99 1014.89 1014.80 1014.70 1014.61 1014.52 1014.43 1014.34 1014.26 1014.20 1014.14 1014.09 1014.06 1014.05 1014.04 1014.04 1014.03 1014.01 1013.98 1013.91 1013.82 1013.70 1013.54 1013.36 1013.15 1012.94 1012.72 1012.51 1012.31 1012.12 1011.95 1011.80 1011.66 1011.52 1011.39 1011.26 1011.13 1011.00 1010.87 1010.74 1010.64 1010.56
1015.24 1015.15 1015.07 1014.98 1014.89 1014.80 1014.72 1014.63 1014.55 1014.46 1014.39 1014.32 1014.26 1014.20 1014.16 1014.13 1014.11 1014.08 1014.05 1014.01 1013.95 1013.87 1013.76 1013.63 1013.46 1013.28 1013.09 1012.88 1012.68 1012.49 1012.30 1012.13 1011.98 1011.84 1011.70 1011.56 1011.42 1011.27 1011.10 1010.93 1010.74 1010.56 1010.39 1010.25
1015.04 1014.96 1014.88 1014.81 1014.74 1014.67 1014.61 1014.55 1014.49 1014.43 1014.37 1014.32 1014.26 1014.22 1014.18 1014.14 1014.10 1014.06 1014.02 1013.95 1013.87 1013.77 1013.65 1013.50 1013.34 1013.15 1012.96 1012.77 1012.59 1012.41 1012.24 1012.09 1011.96 1011.83 1011.70 1011.56 1011.41 1011.25 1011.06 1010.85 1010.63 1010.40 1010.17 1009.96
Thickness
5766 5776 5777 5775 5777 5781 5780 5785 5784 5792 5794 5796 5800 5802 5805 5809 5812 5814 5815 5818 5819 5819 5818 5818 5817 5816 5815 5814 5812 5809 5804 5800 5797 5795 5791 5787 5782 5778 5775 5771 5768 5764 5760 5757
5747 5761 5765 5764 5770 5774 5775 5779 5781 5784 5784 5793 5796 5797 5796 5799 5801 5802 5805 5809 5811 5812 5812 5812 5811 5811 5810 5809 5807 5804 5800 5797 5795 5792 5788 5783 5778 5775 5771 5767 5764 5761 5756 5753
5735 5748 5746 5744 5761 5766 5769 5773 5775 5772 5776 5782 5781 5781 5785 5789 5792 5793 5796 5800 5802 5804 5805 5806 5807 5807 5805 5804 5803 5799 5796 5794 5791 5788 5784 5780 5776 5771 5766 5763 5759 5755 5752 5748
5729 5726 5714 5747 5763 5764 5760 5761 5766 5766 5769 5771 5772 5776 5782 5785 5784 5785 5788 5791 5794 5798 5799 5800 5802 5802 5801 5799 5797 5793 5790 5788 5786 5783 5778 5775 5771 5766 5762 5759 5755 5751 5748 5745
5717 5716 5724 5735 5745 5749 5745 5744 5753 5754 5757 5761 5766 5770 5774 5777 5777 5778 5781 5784 5787 5791 5794 5794 5794 5794 5793 5792 5790 5787 5784 5782 5781 5778 5773 5768 5763 5760 5757 5753 5750 5746 5742 5739
5704 5703 5708 5725 5737 5743 5737 5728 5742 5744 5744 5748 5751 5751 5759 5765 5767 5769 5772 5775 5777 5781 5784 5785 5785 5786 5784 5783 5781 5780 5779 5777 5775 5772 5767 5762 5758 5755 5752 5747 5744 5740 5736 5732
5695 5696 5713 5721 5729 5729 5712 5718 5730 5735 5735 5737 5737 5740 5747 5752 5755 5757 5761 5764 5767 5769 5771 5773 5775 5775 5774 5773 5773 5773 5772 5769 5767 5765 5761 5758 5753 5749 5744 5740 5736 5732 5728 5724
5689 5688 5697 5709 5713 5708 5709 5717 5721 5723 5726 5726 5728 5733 5736 5738 5741 5744 5748 5751 5754 5756 5759 5762 5764 5764 5763 5763 5765 5765 5762 5759 5756 5754 5753 5750 5745 5740 5737 5732 5727 5722 5718 5715
5687 5687 5689 5696 5698 5701 5704 5704 5708 5712 5716 5717 5718 5721 5723 5725 5728 5731 5734 5737 5741 5743 5746 5749 5752 5752 5751 5752 5752 5752 5751 5748 5746 5744 5742 5739 5736 5732 5729 5724 5720 5716 5712 5707
5669 5676 5681 5684 5687 5690 5692 5694 5698 5701 5705 5708 5708 5711 5712 5713 5715 5717 5720 5724 5728 5730 5732 5735 5739 5741 5741 5742 5741 5740 5738 5736 5733 5730 5727 5726 5726 5724 5721 5717 5712 5709 5705 5701
5657 5664 5668 5673 5674 5677 5680 5684 5688 5692 5695 5697 5698 5699 5700 5701 5702 5704 5707 5711 5715 5717 5719 5723 5726 5728 5730 5730 5729 5726 5725 5723 5721 5719 5716 5713 5712 5710 5710 5707 5705 5700 5697 5694
5650 5654 5654 5657 5663 5667 5669 5672 5676 5679 5682 5686 5686 5686 5687 5688 5689 5691 5695 5698 5701 5704 5706 5709 5713 5715 5717 5718 5717 5714 5712 5711 5711 5709 5706 5703 5702 5698 5694 5693 5689 5686 5684 5682
5642 5646 5648 5651 5655 5659 5660 5663 5666 5668 5670 5671 5673 5674 5674 5675 5677 5680 5683 5685 5688 5691 5694 5697 5700 5702 5705 5707 5706 5703 5699 5699 5699 5698 5695 5694 5693 5691 5685 5677 5673 5672 5669 5667
5634 5635 5637 5642 5645 5649 5651 5653 5656 5658 5659 5660 5661 5662 5663 5664 5667 5669 5671 5674 5677 5680 5683 5685 5687 5689 5692 5693 5693 5692 5690 5690 5689 5688 5687 5685 5684 5683 5679 5674 5668 5664 5657 5652
5626 5628 5630 5634 5637 5640 5642 5643 5644 5645 5646 5648 5650 5651 5652 5653 5655 5657 5660 5663 5665 5667 5670 5673 5674 5676 5679 5680 5679 5680 5680 5679 5678 5678 5679 5676 5674 5672 5668 5664 5660 5657 5651 5643
5619 5622 5624 5625 5626 5629 5631 5632 5633 5634 5636 5637 5640 5641 5643 5644 5645 5648 5650 5652 5652 5655 5658 5659 5661 5664 5666 5667 5667 5668 5668 5666 5666 5668 5668 5666 5663 5660 5658 5655 5651 5647 5643 5638
5610 5612 5615 5616 5618 5620 5622 5624 5625 5626 5627 5629 5631 5632 5633 5634 5635 5637 5639 5640 5642 5644 5646 5647 5649 5652 5655 5655 5657 5658 5659 5658 5654 5656 5657 5655 5653 5649 5646 5644 5642 5638 5634 5629
5608 5609 5610 5610 5612 5613 5615 5617 5618 5618 5619 5621 5623 5624 5624 5625 5626 5627 5628 5630 5631 5632 5635 5637 5638 5641 5643 5644 5645 5647 5647 5647 5647 5646 5645 5643 5642 5639 5636 5633 5630 5627 5624 5618
5605 5606 5606 5606 5607 5607 5609 5610 5611 5612 5613 5614 5615 5614 5615 5617 5618 5619 5619 5619 5620 5621 5624 5627 5627 5630 5632 5634 5634 5634 5635 5636 5635 5635 5634 5630 5629 5627 5624 5622 5620 5617 5613 5608
5600 5601 5601 5602 5602 5603 5604 5605 5605 5606 5607 5607 5608 5607 5607 5609 5610 5610 5611 5611 5612 5614 5616 5617 5620 5622 5623 5624 5624 5627 5627 5627 5626 5625 5622 5621 5619 5616 5614 5611 5609 5605 5602 5599
5594 5595 5596 5596 5597 5598 5599 5600 5600 5601 5602 5602 5602 5601 5601 5602 5603 5603 5604 5605 5605 5606 5607 5607 5611 5613 5615 5616 5615 5618 5618 5617 5616 5614 5611 5610 5608 5605 5604 5602 5599 5595 5592 5589
5589 5590 5591 5592 5592 5593 5594 5595 5595 5596 5596 5596 5596 5596 5596 5596 5597 5597 5598 5598 5599 5598 5601 5604 5606 5605 5605 5605 5609 5609 5607 5606 5605 5603 5601 5600 5597 5595 5593 5591 5589 5586 5582 5579
5585 5586 5586 5587 5587 5587 5589 5589 5590 5590 5590 5590 5590 5590 5591 5591 5592 5592 5592 5594 5595 5593 5596 5597 5594 5593 5593 5597 5599 5599 5597 5596 5595 5594 5592 5591 5589 5586 5584 5581 5579 5576 5573 5570
5581 5582 5582 5582 5583 5583 5583 5585 5585 5585 5585 5585 5585 5585 5585 5586 5587 5588 5587 5585 5585 5585 5588 5585 5583 5583 5584 5589 5589 5589 5588 5586 5585 5584 5583 5582 5580 5577 5575 5572 5570 5567 5565 5561
5577 5578 5578 5578 5578 5579 5579 5580 5580 5580 5581 5581 5581 5581 5582 5582 5581 5582 5581 5581 5578 5579 5581 5578 5576 5576 5579 5582 5581 5580 5579 5577 5577 5576 5574 5573 5571 5569 5566 5563 5561 5558 5555 5551
5574 5575 5575 5574 5574 5574 5576 5576 5576 5576 5576 5576 5576 5576 5576 5575 5575 5574 5574 5574 5574 5572 5574 5575 5574 5573 5574 5575 5573 5572 5570 5569 5568 5567 5565 5563 5561 5559 5556 5554 5550 5548 5545 5542
5572 5572 5572 5573 5574 5573 5573 5572 5571 5571 5570 5570 5570 5570 5569 5569 5569 5569 5569 5569 5569 5569 5570 5570 5571 5570 5569 5568 5567 5565 5564 5562 5560 5558 5556 5554 5552 5549 5547 5544 5542 5539 5535 5532